Time,TemperatureF,DewpointF,PressureIn,WindDirection,WindDirectionDegrees,WindSpeedMPH,WindSpeedGustMPH,Humidity,HourlyPrecipIn,Conditions,Clouds,dailyrainin,SolarRadiationWatts/m^2,SoftwareType,DateUTC
2013-01-10 00:00:00,47.8,46.4,30.32,East,80,0.0,0.0,95,0.00,,,0.00,0,WeatherTracker,2013-01-10 05:00:00,
2013-01-10 00:02:00,47.8,46.4,30.32,East,80,0.0,0.0,95,0.00,,,0.00,0,WeatherTracker,2013-01-10 05:02:00,
2013-01-10 00:07:00,47.7,46.3,30.31,East,80,0.0,0.0,95,0.00,,,0.00,0,WeatherTracker,2013-01-10 05:07:00,
2013-01-10 00:12:00,47.5,46.1,30.31,East,79,0.0,0.0,95,0.00,,,0.00,0,WeatherTracker,2013-01-10 05:12:00,
2013-01-10 00:18:00,47.4,46.0,30.31,East,80,0.0,0.0,95,0.00,,,0.00,0,WeatherTracker,2013-01-10 05:18:00,
2013-01-10 00:23:00,47.2,45.8,30.31,East,80,0.0,0.0,95,0.00,,,0.00,0,WeatherTracker,2013-01-10 05:23:00,
2013-01-10 00:28:00,47.0,45.6,30.32,East,79,0.0,0.0,95,0.00,,,0.00,0,WeatherTracker,2013-01-10 05:28:00,
2013-01-10 00:33:00,47.0,45.6,30.32,East,79,0.0,0.0,95,0.00,,,0.00,0,WeatherTracker,2013-01-10 05:33:00,
2013-01-10 00:38:00,46.8,45.4,30.31,East,80,0.0,0.0,95,0.00,,,0.00,0,WeatherTracker,2013-01-10 05:38:00,
2013-01-10 00:43:00,46.7,45.3,30.31,East,80,0.0,0.0,95,0.00,,,0.00,0,WeatherTracker,2013-01-10 05:43:00,
2013-01-10 00:48:00,46.7,45.3,30.31,East,80,0.0,0.0,95,0.00,,,0.00,0,WeatherTracker,2013-01-10 05:48:00,
2013-01-10 00:53:00,46.7,45.3,30.32,East,80,0.0,0.0,95,0.00,,,0.00,0,WeatherTracker,2013-01-10 05:53:00,
2013-01-10 00:58:00,46.6,45.2,30.31,East,79,0.0,0.0,95,0.00,,,0.00,0,WeatherTracker,2013-01-10 05:58:00,
2013-01-10 01:03:00,46.4,45.0,30.31,East,80,0.0,0.0,95,0.00,,,0.00,0,WeatherTracker,2013-01-10 06:03:00,
2013-01-10 01:08:00,46.5,45.1,30.31,East,79,0.0,0.0,95,0.00,,,0.00,0,WeatherTracker,2013-01-10 06:08:00,
2013-01-10 01:13:00,46.4,45.0,30.31,East,79,0.0,0.0,95,0.00,,,0.00,0,WeatherTracker,2013-01-10 06:13:00,
2013-01-10 01:18:00,46.3,44.9,30.30,East,80,0.0,0.0,95,0.00,,,0.00,0,WeatherTracker,2013-01-10 06:18:00,
2013-01-10 01:23:00,46.2,44.8,30.31,East,79,0.0,0.0,95,0.00,,,0.00,0,WeatherTracker,2013-01-10 06:23:00,
2013-01-10 01:29:00,46.2,44.8,30.31,East,80,0.0,0.0,95,0.00,,,0.00,0,WeatherTracker,2013-01-10 06:29:00,
2013-01-10 01:34:00,46.2,44.8,30.31,East,80,0.0,0.0,95,0.00,,,0.00,0,WeatherTracker,2013-01-10 06:34:00,
2013-01-10 01:39:00,46.3,44.9,30.31,East,79,0.0,0.0,95,0.00,,,0.00,0,WeatherTracker,2013-01-10 06:39:00,
2013-01-10 01:44:00,46.4,45.0,30.31,East,79,0.0,0.0,95,0.00,,,0.00,0,WeatherTracker,2013-01-10 06:44:00,
2013-01-10 01:49:00,46.3,44.9,30.31,East,79,0.0,0.0,95,0.00,,,0.00,0,WeatherTracker,2013-01-10 06:49:00,
2013-01-10 01:54:00,46.1,44.7,30.30,East,80,0.0,0.0,95,0.00,,,0.00,0,WeatherTracker,2013-01-10 06:54:00,
2013-01-10 01:59:00,46.1,44.7,30.31,East,80,0.0,0.0,95,0.00,,,0.00,0,WeatherTracker,2013-01-10 06:59:00,
2013-01-10 02:04:00,46.3,44.9,30.30,East,80,0.0,0.0,95,0.00,,,0.00,0,WeatherTracker,2013-01-10 07:04:00,
2013-01-10 02:09:00,46.6,45.5,30.30,East,80,0.0,0.0,96,0.00,,,0.00,0,WeatherTracker,2013-01-10 07:09:00,
2013-01-10 02:14:00,46.5,45.4,30.30,East,79,0.0,0.0,96,0.00,,,0.00,0,WeatherTracker,2013-01-10 07:14:00,
2013-01-10 02:19:00,46.3,44.9,30.30,East,80,0.0,0.0,95,0.00,,,0.00,0,WeatherTracker,2013-01-10 07:19:00,
2013-01-10 02:24:00,46.3,44.9,30.30,East,79,0.0,0.0,95,0.00,,,0.00,0,WeatherTracker,2013-01-10 07:24:00,
2013-01-10 02:29:00,46.3,44.9,30.31,East,79,0.0,0.0,95,0.00,,,0.00,0,WeatherTracker,2013-01-10 07:29:00,
2013-01-10 02:34:00,46.1,45.0,30.30,East,80,0.0,0.0,96,0.00,,,0.00,0,WeatherTracker,2013-01-10 07:34:00,
2013-01-10 02:39:00,46.0,44.9,30.30,East,80,0.0,0.0,96,0.00,,,0.00,0,WeatherTracker,2013-01-10 07:39:00,
2013-01-10 02:44:00,45.9,44.8,30.30,East,80,0.0,0.0,96,0.00,,,0.00,0,WeatherTracker,2013-01-10 07:44:00,
2013-01-10 02:49:00,46.0,44.9,30.30,East,80,0.0,0.0,96,0.00,,,0.00,0,WeatherTracker,2013-01-10 07:49:00,
2013-01-10 02:54:00,46.0,44.6,30.30,East,79,0.0,0.0,95,0.00,,,0.00,0,WeatherTracker,2013-01-10 07:54:00,
2013-01-10 02:59:00,45.9,44.5,30.30,East,79,0.0,0.0,95,0.00,,,0.00,0,WeatherTracker,2013-01-10 07:59:00,
2013-01-10 03:04:00,45.9,44.8,30.30,East,80,0.0,0.0,96,0.00,,,0.00,0,WeatherTracker,2013-01-10 08:04:00,
2013-01-10 03:09:00,46.0,44.9,30.30,East,79,0.0,0.0,96,0.00,,,0.00,0,WeatherTracker,2013-01-10 08:09:00,
2013-01-10 03:14:00,46.1,45.0,30.31,East,80,0.0,0.0,96,0.00,,,0.00,0,WeatherTracker,2013-01-10 08:14:00,
2013-01-10 03:19:00,46.2,45.1,30.31,East,80,0.0,0.0,96,0.00,,,0.00,0,WeatherTracker,2013-01-10 08:19:00,
2013-01-10 03:24:00,46.2,45.1,30.30,East,80,0.0,0.0,96,0.00,,,0.00,0,WeatherTracker,2013-01-10 08:24:00,
2013-01-10 03:29:00,46.1,45.0,30.30,East,80,0.0,0.0,96,0.00,,,0.00,0,WeatherTracker,2013-01-10 08:29:00,
2013-01-10 03:34:00,46.0,44.9,30.30,East,80,0.0,0.0,96,0.00,,,0.00,0,WeatherTracker,2013-01-10 08:34:00,
2013-01-10 03:39:00,46.1,45.0,30.30,East,80,0.0,0.0,96,0.00,,,0.00,0,WeatherTracker,2013-01-10 08:39:00,
2013-01-10 03:45:00,46.3,45.2,30.30,East,80,0.0,0.0,96,0.00,,,0.00,0,WeatherTracker,2013-01-10 08:45:00,
2013-01-10 03:50:00,46.2,45.1,30.30,East,80,0.0,0.0,96,0.00,,,0.00,0,WeatherTracker,2013-01-10 08:50:00,
2013-01-10 03:55:00,46.3,45.2,30.30,East,80,0.0,0.0,96,0.00,,,0.00,0,WeatherTracker,2013-01-10 08:55:00,
2013-01-10 04:00:00,46.2,45.1,30.30,East,79,0.0,0.0,96,0.00,,,0.00,0,WeatherTracker,2013-01-10 09:00:00,
2013-01-10 04:05:00,46.2,45.1,30.30,East,80,0.0,0.0,96,0.00,,,0.00,0,WeatherTracker,2013-01-10 09:05:00,
2013-01-10 04:10:00,46.4,45.3,30.31,East,79,0.0,0.0,96,0.00,,,0.00,0,WeatherTracker,2013-01-10 09:10:00,
2013-01-10 04:15:00,46.6,45.5,30.30,East,80,0.0,0.0,96,0.00,,,0.00,0,WeatherTracker,2013-01-10 09:15:00,
2013-01-10 04:20:00,46.6,45.5,30.30,East,80,0.0,0.0,96,0.00,,,0.00,0,WeatherTracker,2013-01-10 09:20:00,
2013-01-10 04:25:00,46.4,45.3,30.30,East,80,0.0,0.0,96,0.00,,,0.00,0,WeatherTracker,2013-01-10 09:25:00,
2013-01-10 04:30:00,46.4,45.3,30.30,East,80,0.0,0.0,96,0.00,,,0.00,0,WeatherTracker,2013-01-10 09:30:00,
2013-01-10 04:35:00,46.7,45.6,30.30,East,80,0.0,0.0,96,0.00,,,0.00,0,WeatherTracker,2013-01-10 09:35:00,
2013-01-10 04:40:00,46.7,45.6,30.30,East,80,0.0,0.0,96,0.00,,,0.00,0,WeatherTracker,2013-01-10 09:40:00,
2013-01-10 04:45:00,46.8,45.7,30.30,East,80,0.0,0.0,96,0.00,,,0.00,0,WeatherTracker,2013-01-10 09:45:00,
2013-01-10 04:50:00,46.9,45.8,30.30,East,80,0.0,0.0,96,0.00,,,0.00,0,WeatherTracker,2013-01-10 09:50:00,
2013-01-10 04:55:00,47.1,46.0,30.29,East,80,0.0,0.0,96,0.00,,,0.00,0,WeatherTracker,2013-01-10 09:55:00,
2013-01-10 05:00:00,47.2,46.1,30.29,East,79,0.0,0.0,96,0.00,,,0.00,0,WeatherTracker,2013-01-10 10:00:00,
2013-01-10 05:05:00,47.2,46.1,30.29,East,80,0.0,0.0,96,0.00,,,0.00,0,WeatherTracker,2013-01-10 10:05:00,
2013-01-10 05:10:00,47.2,46.1,30.29,East,79,0.0,0.0,96,0.00,,,0.00,0,WeatherTracker,2013-01-10 10:10:00,
2013-01-10 05:15:00,47.1,46.0,30.29,East,80,0.0,0.0,96,0.00,,,0.00,0,WeatherTracker,2013-01-10 10:15:00,
2013-01-10 05:20:00,46.9,45.8,30.29,East,79,0.0,0.0,96,0.00,,,0.00,0,WeatherTracker,2013-01-10 10:20:00,
2013-01-10 05:25:00,46.7,45.6,30.29,East,80,0.0,0.0,96,0.00,,,0.00,0,WeatherTracker,2013-01-10 10:25:00,
2013-01-10 05:30:00,46.6,45.5,30.29,East,80,0.0,0.0,96,0.00,,,0.00,0,WeatherTracker,2013-01-10 10:30:00,
2013-01-10 05:36:00,46.5,45.4,30.29,East,80,0.0,0.0,96,0.00,,,0.00,0,WeatherTracker,2013-01-10 10:36:00,
2013-01-10 05:41:00,46.5,45.4,30.29,East,80,0.0,0.0,96,0.00,,,0.00,0,WeatherTracker,2013-01-10 10:41:00,
2013-01-10 05:46:00,46.6,45.5,30.29,East,79,0.0,0.0,96,0.00,,,0.00,0,WeatherTracker,2013-01-10 10:46:00,
2013-01-10 05:51:00,46.7,45.6,30.29,East,80,0.0,0.0,96,0.00,,,0.00,0,WeatherTracker,2013-01-10 10:51:00,
2013-01-10 05:56:00,46.7,45.6,30.30,East,79,0.0,0.0,96,0.00,,,0.00,0,WeatherTracker,2013-01-10 10:56:00,
2013-01-10 06:01:00,46.6,45.5,30.30,East,79,0.0,0.0,96,0.00,,,0.00,0,WeatherTracker,2013-01-10 11:01:00,
2013-01-10 06:06:00,46.4,45.3,30.30,East,80,0.0,0.0,96,0.00,,,0.00,0,WeatherTracker,2013-01-10 11:06:00,
2013-01-10 06:11:00,46.3,45.2,30.30,East,80,0.0,0.0,96,0.00,,,0.00,0,WeatherTracker,2013-01-10 11:11:00,
2013-01-10 06:16:00,46.2,45.1,30.30,East,80,0.0,0.0,96,0.00,,,0.00,0,WeatherTracker,2013-01-10 11:16:00,
2013-01-10 06:21:00,46.1,45.0,30.30,East,79,0.0,0.0,96,0.00,,,0.00,0,WeatherTracker,2013-01-10 11:21:00,
2013-01-10 06:26:00,46.0,44.9,30.30,East,80,0.0,0.0,96,0.00,,,0.00,0,WeatherTracker,2013-01-10 11:26:00,
2013-01-10 06:31:00,45.9,44.8,30.30,East,79,0.0,0.0,96,0.00,,,0.00,0,WeatherTracker,2013-01-10 11:31:00,
2013-01-10 06:36:00,45.8,44.7,30.30,East,80,0.0,0.0,96,0.00,,,0.00,0,WeatherTracker,2013-01-10 11:36:00,
2013-01-10 06:41:00,45.7,44.6,30.30,East,80,0.0,0.0,96,0.00,,,0.00,0,WeatherTracker,2013-01-10 11:41:00,
2013-01-10 06:46:00,45.5,44.4,30.30,East,80,0.0,0.0,96,0.00,,,0.00,0,WeatherTracker,2013-01-10 11:46:00,
2013-01-10 06:51:00,45.4,44.3,30.30,East,80,0.0,0.0,96,0.00,,,0.00,0,WeatherTracker,2013-01-10 11:51:00,
2013-01-10 06:56:00,45.2,44.1,30.30,East,79,0.0,0.0,96,0.00,,,0.00,0,WeatherTracker,2013-01-10 11:56:00,
2013-01-10 07:01:00,45.0,43.9,30.30,East,80,0.0,0.0,96,0.00,,,0.00,0,WeatherTracker,2013-01-10 12:01:00,
2013-01-10 07:06:00,45.0,43.9,30.31,East,80,0.0,0.0,96,0.00,,,0.00,0,WeatherTracker,2013-01-10 12:06:00,
2013-01-10 07:11:00,44.9,43.8,30.31,East,80,0.0,0.0,96,0.00,,,0.00,0,WeatherTracker,2013-01-10 12:11:00,
2013-01-10 07:16:00,44.7,43.6,30.31,East,79,0.0,0.0,96,0.00,,,0.00,0,WeatherTracker,2013-01-10 12:16:00,
2013-01-10 07:21:00,44.6,43.5,30.32,East,80,0.0,0.0,96,0.00,,,0.00,0,WeatherTracker,2013-01-10 12:21:00,
2013-01-10 07:26:00,44.5,43.4,30.32,East,80,0.0,0.0,96,0.00,,,0.00,0,WeatherTracker,2013-01-10 12:26:00,
2013-01-10 07:32:00,44.4,43.3,30.32,East,79,0.0,0.0,96,0.00,,,0.00,0,WeatherTracker,2013-01-10 12:32:00,
2013-01-10 07:37:00,44.3,43.2,30.31,East,80,0.0,0.0,96,0.00,,,0.00,0,WeatherTracker,2013-01-10 12:37:00,
2013-01-10 07:42:00,44.3,43.2,30.31,East,79,0.0,0.0,96,0.00,,,0.00,0,WeatherTracker,2013-01-10 12:42:00,
2013-01-10 07:47:00,44.4,43.3,30.32,East,80,0.0,0.0,96,0.00,,,0.00,5,WeatherTracker,2013-01-10 12:47:00,
2013-01-10 07:52:00,45.0,43.9,30.32,East,80,0.0,0.0,96,0.00,,,0.00,7,WeatherTracker,2013-01-10 12:52:00,
2013-01-10 07:57:00,45.4,44.3,30.32,East,80,0.0,0.0,96,0.00,,,0.00,11,WeatherTracker,2013-01-10 12:57:00,
2013-01-10 08:02:00,45.4,44.3,30.32,East,80,0.0,0.0,96,0.00,,,0.00,12,WeatherTracker,2013-01-10 13:02:00,
2013-01-10 08:07:00,45.4,44.3,30.32,East,80,0.0,0.0,96,0.00,,,0.00,16,WeatherTracker,2013-01-10 13:07:00,
2013-01-10 08:12:00,45.4,44.3,30.32,East,80,0.0,0.0,96,0.00,,,0.00,21,WeatherTracker,2013-01-10 13:12:00,
2013-01-10 08:17:00,45.5,44.4,30.32,East,80,0.0,0.0,96,0.00,,,0.00,25,WeatherTracker,2013-01-10 13:17:00,
2013-01-10 08:22:00,45.4,44.3,30.32,East,79,0.0,0.0,96,0.00,,,0.00,28,WeatherTracker,2013-01-10 13:22:00,
2013-01-10 08:27:00,45.4,44.3,30.33,East,79,0.0,0.0,96,0.00,,,0.00,30,WeatherTracker,2013-01-10 13:27:00,
2013-01-10 08:32:00,45.3,44.2,30.33,East,80,0.0,0.0,96,0.00,,,0.00,32,WeatherTracker,2013-01-10 13:32:00,
2013-01-10 08:37:00,45.2,44.1,30.33,East,80,0.0,0.0,96,0.00,,,0.00,35,WeatherTracker,2013-01-10 13:37:00,
2013-01-10 08:42:00,45.2,44.1,30.34,East,80,0.0,0.0,96,0.00,,,0.00,42,WeatherTracker,2013-01-10 13:42:00,
2013-01-10 08:47:00,45.2,44.1,30.34,East,80,0.0,0.0,96,0.00,,,0.00,49,WeatherTracker,2013-01-10 13:47:00,
2013-01-10 08:53:00,45.4,44.3,30.34,East,79,0.0,0.0,96,0.00,,,0.00,54,WeatherTracker,2013-01-10 13:53:00,
2013-01-10 08:58:00,45.4,44.3,30.34,East,79,0.0,0.0,96,0.00,,,0.00,62,WeatherTracker,2013-01-10 13:58:00,
2013-01-10 09:03:00,45.5,44.4,30.34,East,80,0.0,0.0,96,0.00,,,0.00,70,WeatherTracker,2013-01-10 14:03:00,
2013-01-10 09:08:00,45.6,44.5,30.34,East,79,0.0,0.0,96,0.00,,,0.00,76,WeatherTracker,2013-01-10 14:08:00,
2013-01-10 09:13:00,45.7,44.6,30.34,East,79,0.0,0.0,96,0.00,,,0.00,79,WeatherTracker,2013-01-10 14:13:00,
2013-01-10 09:18:00,45.8,44.7,30.34,East,80,0.0,0.0,96,0.00,,,0.00,81,WeatherTracker,2013-01-10 14:18:00,
2013-01-10 09:23:00,46.0,44.9,30.34,East,79,0.0,0.0,96,0.00,,,0.00,81,WeatherTracker,2013-01-10 14:23:00,
2013-01-10 09:28:00,46.2,45.1,30.34,East,80,0.0,0.0,96,0.00,,,0.00,84,WeatherTracker,2013-01-10 14:28:00,
2013-01-10 09:33:00,46.5,45.4,30.34,East,79,0.0,0.0,96,0.00,,,0.00,100,WeatherTracker,2013-01-10 14:33:00,
2013-01-10 09:38:00,46.9,45.8,30.34,East,80,0.0,0.0,96,0.00,,,0.00,114,WeatherTracker,2013-01-10 14:38:00,
2013-01-10 09:43:00,47.4,46.3,30.34,East,80,0.0,0.0,96,0.00,,,0.00,125,WeatherTracker,2013-01-10 14:43:00,
2013-01-10 09:48:00,47.9,46.8,30.34,East,80,0.0,0.0,96,0.00,,,0.00,128,WeatherTracker,2013-01-10 14:48:00,
2013-01-10 09:53:00,48.3,47.2,30.35,East,80,0.0,0.0,96,0.00,,,0.00,127,WeatherTracker,2013-01-10 14:53:00,
2013-01-10 09:58:00,48.8,47.7,30.35,East,79,0.0,0.0,96,0.00,,,0.00,144,WeatherTracker,2013-01-10 14:58:00,
2013-01-10 10:03:00,49.5,48.7,30.35,East,80,0.0,0.0,97,0.00,,,0.00,113,WeatherTracker,2013-01-10 15:03:00,
2013-01-10 10:08:00,49.9,48.8,30.35,East,80,0.0,0.0,96,0.00,,,0.00,153,WeatherTracker,2013-01-10 15:08:00,
2013-01-10 10:13:00,50.3,49.5,30.35,East,80,0.0,0.0,97,0.00,,,0.00,181,WeatherTracker,2013-01-10 15:13:00,
2013-01-10 10:18:00,50.6,49.8,30.35,East,80,0.0,0.0,97,0.00,,,0.00,193,WeatherTracker,2013-01-10 15:18:00,
2013-01-10 10:24:00,50.9,50.1,30.34,East,80,0.0,0.0,97,0.00,,,0.00,190,WeatherTracker,2013-01-10 15:24:00,
2013-01-10 10:29:00,50.9,50.1,30.34,East,80,0.0,0.0,97,0.00,,,0.00,155,WeatherTracker,2013-01-10 15:29:00,
2013-01-10 10:34:00,50.9,50.1,30.35,East,80,0.0,0.0,97,0.00,,,0.00,139,WeatherTracker,2013-01-10 15:34:00,
2013-01-10 10:39:00,50.8,50.0,30.35,East,80,0.0,0.0,97,0.00,,,0.00,130,WeatherTracker,2013-01-10 15:39:00,
2013-01-10 10:44:00,50.7,49.9,30.34,East,80,0.0,0.0,97,0.00,,,0.00,174,WeatherTracker,2013-01-10 15:44:00,
2013-01-10 10:49:00,50.7,49.9,30.34,East,80,0.0,0.0,97,0.00,,,0.00,213,WeatherTracker,2013-01-10 15:49:00,
2013-01-10 10:54:00,51.1,50.0,30.34,East,80,0.0,0.0,96,0.00,,,0.00,223,WeatherTracker,2013-01-10 15:54:00,
2013-01-10 10:59:00,51.7,50.9,30.34,East,80,0.0,0.0,97,0.00,,,0.00,243,WeatherTracker,2013-01-10 15:59:00,
2013-01-10 11:04:00,52.3,51.5,30.34,East,80,0.0,0.0,97,0.00,,,0.00,271,WeatherTracker,2013-01-10 16:04:00,
2013-01-10 11:09:00,52.7,51.9,30.34,East,80,0.0,0.0,97,0.00,,,0.00,281,WeatherTracker,2013-01-10 16:09:00,
2013-01-10 11:14:00,53.1,52.3,30.34,East,80,0.0,0.0,97,0.00,,,0.00,246,WeatherTracker,2013-01-10 16:14:00,
2013-01-10 11:19:00,53.3,52.5,30.34,East,80,0.0,0.0,97,0.00,,,0.00,213,WeatherTracker,2013-01-10 16:19:00,
2013-01-10 11:24:00,53.5,52.4,30.34,East,80,0.0,0.0,96,0.00,,,0.00,204,WeatherTracker,2013-01-10 16:24:00,
2013-01-10 11:29:00,53.8,52.7,30.34,East,80,0.0,0.0,96,0.00,,,0.00,209,WeatherTracker,2013-01-10 16:29:00,
2013-01-10 11:34:00,54.3,52.6,30.34,East,80,1.0,0.0,94,0.00,,,0.00,243,WeatherTracker,2013-01-10 16:34:00,
2013-01-10 11:39:00,54.8,52.5,30.33,East,80,1.0,0.0,92,0.00,,,0.00,220,WeatherTracker,2013-01-10 16:39:00,
2013-01-10 11:44:00,55.1,52.2,30.33,East,80,0.0,0.0,90,0.00,,,0.00,190,WeatherTracker,2013-01-10 16:44:00,
2013-01-10 11:49:00,55.5,52.0,30.33,West,271,1.0,0.0,88,0.00,,,0.00,137,WeatherTracker,2013-01-10 16:49:00,
2013-01-10 11:55:00,55.8,52.0,30.33,NNW,342,3.0,0.0,87,0.00,,,0.00,137,WeatherTracker,2013-01-10 16:55:00,
2013-01-10 12:00:00,55.8,51.7,30.32,NNE,24,0.0,0.0,86,0.00,,,0.00,165,WeatherTracker,2013-01-10 17:00:00,
2013-01-10 12:05:00,56.0,51.9,30.31,NNE,24,0.0,0.0,86,0.00,,,0.00,192,WeatherTracker,2013-01-10 17:05:00,
2013-01-10 12:10:00,56.2,52.1,30.31,NNE,24,0.0,0.0,86,0.00,,,0.00,241,WeatherTracker,2013-01-10 17:10:00,
2013-01-10 12:15:00,56.5,52.0,30.31,NNW,336,2.0,0.0,85,0.00,,,0.00,320,WeatherTracker,2013-01-10 17:15:00,
2013-01-10 12:20:00,56.9,52.4,30.31,ENE,70,0.0,0.0,85,0.00,,,0.00,350,WeatherTracker,2013-01-10 17:20:00,
2013-01-10 12:25:00,57.5,52.4,30.30,NE,38,0.0,0.0,83,0.00,,,0.00,355,WeatherTracker,2013-01-10 17:25:00,
2013-01-10 12:30:00,58.0,52.5,30.30,East,85,0.0,0.0,82,0.00,,,0.00,243,WeatherTracker,2013-01-10 17:30:00,
2013-01-10 12:35:00,58.5,52.7,30.29,NNE,32,2.0,0.0,81,0.00,,,0.00,216,WeatherTracker,2013-01-10 17:35:00,
2013-01-10 12:40:00,58.7,52.5,30.29,NNE,21,2.0,0.0,80,0.00,,,0.00,244,WeatherTracker,2013-01-10 17:40:00,
2013-01-10 12:45:00,59.0,52.8,30.29,NNE,16,0.0,0.0,80,0.00,,,0.00,223,WeatherTracker,2013-01-10 17:45:00,
2013-01-10 12:50:00,59.0,52.8,30.29,NNE,15,0.0,0.0,80,0.00,,,0.00,199,WeatherTracker,2013-01-10 17:50:00,
2013-01-10 12:55:00,59.2,52.7,30.28,ENE,78,0.0,0.0,79,0.00,,,0.00,188,WeatherTracker,2013-01-10 17:55:00,
2013-01-10 13:00:00,59.2,52.7,30.28,NW,313,2.0,0.0,79,0.00,,,0.00,188,WeatherTracker,2013-01-10 18:00:00,
2013-01-10 13:05:00,59.3,52.8,30.28,NW,313,1.0,0.0,79,0.00,,,0.00,322,WeatherTracker,2013-01-10 18:05:00,
2013-01-10 13:10:00,59.5,52.6,30.27,ENE,71,2.0,0.0,78,0.00,,,0.00,320,WeatherTracker,2013-01-10 18:10:00,
2013-01-10 13:15:00,59.8,52.6,30.27,NNE,18,0.0,0.0,77,0.00,,,0.00,325,WeatherTracker,2013-01-10 18:15:00,
2013-01-10 13:20:00,60.1,53.2,30.27,NNE,18,0.0,0.0,78,0.00,,,0.00,448,WeatherTracker,2013-01-10 18:20:00,
2013-01-10 13:25:00,60.4,52.4,30.27,NNE,21,0.0,0.0,75,0.00,,,0.00,239,WeatherTracker,2013-01-10 18:25:00,
2013-01-10 13:30:00,60.9,52.9,30.26,NNE,23,1.0,0.0,75,0.00,,,0.00,174,WeatherTracker,2013-01-10 18:30:00,
2013-01-10 13:35:00,61.3,52.9,30.25,NNE,23,0.0,0.0,74,0.00,,,0.00,418,WeatherTracker,2013-01-10 18:35:00,
2013-01-10 13:41:00,61.9,53.1,30.26,ESE,111,1.0,0.0,73,0.00,,,0.00,216,WeatherTracker,2013-01-10 18:41:00,
2013-01-10 13:46:00,62.1,52.6,30.25,ESE,117,0.0,0.0,71,0.00,,,0.00,202,WeatherTracker,2013-01-10 18:46:00,
2013-01-10 13:51:00,62.2,52.7,30.25,NNE,13,1.0,0.0,71,0.00,,,0.00,185,WeatherTracker,2013-01-10 18:51:00,
2013-01-10 13:56:00,62.2,52.3,30.25,NNE,25,0.0,0.0,70,0.00,,,0.00,221,WeatherTracker,2013-01-10 18:56:00,
2013-01-10 14:01:00,62.2,53.1,30.25,NNE,26,0.0,0.0,72,0.00,,,0.00,236,WeatherTracker,2013-01-10 19:01:00,
2013-01-10 14:06:00,62.2,52.7,30.24,NNE,22,0.0,0.0,71,0.00,,,0.00,139,WeatherTracker,2013-01-10 19:06:00,
2013-01-10 14:11:00,62.1,52.2,30.25,ESE,121,0.0,0.0,70,0.00,,,0.00,125,WeatherTracker,2013-01-10 19:11:00,
2013-01-10 14:16:00,62.2,52.3,30.25,ESE,121,0.0,0.0,70,0.00,,,0.00,241,WeatherTracker,2013-01-10 19:16:00,
2013-01-10 14:21:00,62.5,52.6,30.24,ESE,121,0.0,0.0,70,0.00,,,0.00,137,WeatherTracker,2013-01-10 19:21:00,
2013-01-10 14:26:00,62.6,52.3,30.25,NE,40,0.0,0.0,69,0.00,,,0.00,165,WeatherTracker,2013-01-10 19:26:00,
2013-01-10 14:31:00,62.5,52.6,30.24,East,101,3.0,0.0,70,0.00,,,0.00,178,WeatherTracker,2013-01-10 19:31:00,
2013-01-10 14:36:00,62.5,52.6,30.24,East,101,0.0,0.0,70,0.00,,,0.00,163,WeatherTracker,2013-01-10 19:36:00,
2013-01-10 14:41:00,62.5,52.2,30.24,South,170,2.0,0.0,69,0.00,,,0.00,151,WeatherTracker,2013-01-10 19:41:00,
2013-01-10 14:46:00,62.6,52.3,30.24,South,170,0.0,0.0,69,0.00,,,0.00,135,WeatherTracker,2013-01-10 19:46:00,
2013-01-10 14:51:00,62.8,52.5,30.24,South,183,0.0,0.0,69,0.00,,,0.00,137,WeatherTracker,2013-01-10 19:51:00,
2013-01-10 14:56:00,62.9,52.2,30.24,South,183,0.0,0.0,68,0.00,,,0.00,151,WeatherTracker,2013-01-10 19:56:00,
2013-01-10 15:01:00,62.9,52.2,30.24,SE,134,0.0,0.0,68,0.00,,,0.00,134,WeatherTracker,2013-01-10 20:01:00,
2013-01-10 15:06:00,62.8,52.1,30.24,SE,136,2.0,0.0,68,0.00,,,0.00,113,WeatherTracker,2013-01-10 20:06:00,
2013-01-10 15:11:00,62.8,52.1,30.24,SSE,160,0.0,0.0,68,0.00,,,0.00,105,WeatherTracker,2013-01-10 20:11:00,
2013-01-10 15:16:00,62.7,52.0,30.24,SSE,161,0.0,0.0,68,0.00,,,0.00,100,WeatherTracker,2013-01-10 20:16:00,
2013-01-10 15:21:00,62.6,52.3,30.24,SSE,161,0.0,0.0,69,0.00,,,0.00,98,WeatherTracker,2013-01-10 20:21:00,
2013-01-10 15:26:00,62.5,52.2,30.24,SSE,160,0.0,0.0,69,0.00,,,0.00,97,WeatherTracker,2013-01-10 20:26:00,
2013-01-10 15:31:00,62.6,52.3,30.24,SSW,213,0.0,0.0,69,0.00,,,0.00,77,WeatherTracker,2013-01-10 20:31:00,
2013-01-10 15:36:00,62.5,52.2,30.24,South,176,0.0,0.0,69,0.00,,,0.00,70,WeatherTracker,2013-01-10 20:36:00,
2013-01-10 15:41:00,62.3,52.0,30.24,SW,226,0.0,0.0,69,0.00,,,0.00,84,WeatherTracker,2013-01-10 20:41:00,
2013-01-10 15:46:00,62.2,51.9,30.24,ENE,67,0.0,0.0,69,0.00,,,0.00,58,WeatherTracker,2013-01-10 20:46:00,
2013-01-10 15:52:00,61.8,51.9,30.25,South,171,2.0,0.0,70,0.00,,,0.00,53,WeatherTracker,2013-01-10 20:52:00,
2013-01-10 15:57:00,61.5,52.0,30.25,SSE,160,0.0,0.0,71,0.00,,,0.00,62,WeatherTracker,2013-01-10 20:57:00,
2013-01-10 16:02:00,61.3,51.8,30.25,SSE,160,0.0,0.0,71,0.00,,,0.00,67,WeatherTracker,2013-01-10 21:02:00,
2013-01-10 16:07:00,61.1,51.6,30.25,ESE,119,0.0,0.0,71,0.00,,,0.00,60,WeatherTracker,2013-01-10 21:07:00,
2013-01-10 16:12:00,61.1,51.6,30.25,South,191,0.0,0.0,71,0.00,,,0.00,39,WeatherTracker,2013-01-10 21:12:00,
2013-01-10 16:17:00,61.0,51.5,30.25,South,191,0.0,0.0,71,0.00,,,0.00,33,WeatherTracker,2013-01-10 21:17:00,
2013-01-10 16:22:00,60.8,51.3,30.25,ESE,118,0.0,0.0,71,0.00,,,0.00,25,WeatherTracker,2013-01-10 21:22:00,
2013-01-10 16:27:00,60.6,51.1,30.25,ESE,118,0.0,0.0,71,0.00,,,0.00,25,WeatherTracker,2013-01-10 21:27:00,
2013-01-10 16:32:00,60.4,51.3,30.25,ESE,118,0.0,0.0,72,0.00,,,0.00,25,WeatherTracker,2013-01-10 21:32:00,
2013-01-10 16:37:00,60.2,51.1,30.25,ESE,118,0.0,0.0,72,0.00,,,0.00,28,WeatherTracker,2013-01-10 21:37:00,
2013-01-10 16:42:00,60.0,50.9,30.25,ESE,118,0.0,0.0,72,0.00,,,0.00,35,WeatherTracker,2013-01-10 21:42:00,
2013-01-10 16:47:00,59.8,51.1,30.25,ESE,118,0.0,0.0,73,0.00,,,0.00,39,WeatherTracker,2013-01-10 21:47:00,
2013-01-10 16:52:00,59.6,50.9,30.25,ESE,118,0.0,0.0,73,0.00,,,0.00,25,WeatherTracker,2013-01-10 21:52:00,
2013-01-10 16:57:00,59.3,50.6,30.26,ESE,118,0.0,0.0,73,0.00,,,0.00,18,WeatherTracker,2013-01-10 21:57:00,
2013-01-10 17:02:00,59.0,50.7,30.26,East,81,0.0,0.0,74,0.00,,,0.00,18,WeatherTracker,2013-01-10 22:02:00,
2013-01-10 17:07:00,59.0,50.7,30.25,East,81,0.0,0.0,74,0.00,,,0.00,12,WeatherTracker,2013-01-10 22:07:00,
2013-01-10 17:12:00,59.0,50.7,30.26,East,80,0.0,0.0,74,0.00,,,0.00,7,WeatherTracker,2013-01-10 22:12:00,
2013-01-10 17:17:00,59.0,50.7,30.26,East,81,0.0,0.0,74,0.00,,,0.00,5,WeatherTracker,2013-01-10 22:17:00,
2013-01-10 17:22:00,59.0,50.7,30.25,East,80,0.0,0.0,74,0.00,,,0.00,5,WeatherTracker,2013-01-10 22:22:00,
2013-01-10 17:28:00,58.8,50.5,30.25,East,81,0.0,0.0,74,0.00,,,0.00,5,WeatherTracker,2013-01-10 22:28:00,
2013-01-10 17:33:00,58.7,50.8,30.25,East,80,0.0,0.0,75,0.00,,,0.00,5,WeatherTracker,2013-01-10 22:33:00,
2013-01-10 17:38:00,58.4,50.9,30.25,East,81,0.0,0.0,76,0.00,,,0.00,0,WeatherTracker,2013-01-10 22:38:00,
2013-01-10 17:43:00,58.2,50.3,30.25,East,80,0.0,0.0,75,0.00,,,0.00,0,WeatherTracker,2013-01-10 22:43:00,
2013-01-10 17:48:00,58.0,50.5,30.25,East,81,0.0,0.0,76,0.00,,,0.00,0,WeatherTracker,2013-01-10 22:48:00,
2013-01-10 17:53:00,57.8,50.3,30.25,East,80,0.0,0.0,76,0.00,,,0.00,0,WeatherTracker,2013-01-10 22:53:00,
2013-01-10 17:58:00,57.7,50.2,30.25,East,81,0.0,0.0,76,0.00,,,0.00,0,WeatherTracker,2013-01-10 22:58:00,
2013-01-10 18:03:00,57.5,50.0,30.25,East,81,0.0,0.0,76,0.00,,,0.00,0,WeatherTracker,2013-01-10 23:03:00,
2013-01-10 18:08:00,57.4,50.2,30.25,East,81,0.0,0.0,77,0.00,,,0.00,0,WeatherTracker,2013-01-10 23:08:00,
2013-01-10 18:13:00,57.3,50.2,30.25,East,85,0.0,0.0,77,0.00,,,0.00,0,WeatherTracker,2013-01-10 23:13:00,
2013-01-10 18:18:00,57.2,50.1,30.25,North,355,0.0,0.0,77,0.00,,,0.00,0,WeatherTracker,2013-01-10 23:18:00,
2013-01-10 18:23:00,57.1,50.0,30.25,North,5,0.0,0.0,77,0.00,,,0.00,0,WeatherTracker,2013-01-10 23:23:00,
2013-01-10 18:28:00,56.9,50.1,30.25,North,360,0.0,0.0,78,0.00,,,0.00,0,WeatherTracker,2013-01-10 23:28:00,
2013-01-10 18:33:00,56.8,50.0,30.25,North,360,0.0,0.0,78,0.00,,,0.00,0,WeatherTracker,2013-01-10 23:33:00,
2013-01-10 18:38:00,56.7,49.9,30.25,North,5,0.0,0.0,78,0.00,,,0.00,0,WeatherTracker,2013-01-10 23:38:00,
2013-01-10 18:43:00,56.5,49.7,30.25,North,5,0.0,0.0,78,0.00,,,0.00,0,WeatherTracker,2013-01-10 23:43:00,
2013-01-10 18:48:00,56.2,49.8,30.25,North,5,0.0,0.0,79,0.00,,,0.00,0,WeatherTracker,2013-01-10 23:48:00,
2013-01-10 18:53:00,55.9,49.5,30.25,NNE,22,0.0,0.0,79,0.00,,,0.00,0,WeatherTracker,2013-01-10 23:53:00,
2013-01-10 18:59:00,55.7,49.6,30.25,NNE,22,1.0,0.0,80,0.00,,,0.00,0,WeatherTracker,2013-01-10 23:59:00,
2013-01-10 19:04:00,55.5,49.4,30.25,NNE,22,0.0,0.0,80,0.00,,,0.00,0,WeatherTracker,2013-01-11 00:04:00,
2013-01-10 19:09:00,55.2,49.1,30.25,NNE,22,0.0,0.0,80,0.00,,,0.00,0,WeatherTracker,2013-01-11 00:09:00,
2013-01-10 19:14:00,54.9,48.8,30.25,NNE,22,0.0,0.0,80,0.00,,,0.00,0,WeatherTracker,2013-01-11 00:14:00,
2013-01-10 19:19:00,54.6,48.9,30.25,NNE,22,0.0,0.0,81,0.00,,,0.00,0,WeatherTracker,2013-01-11 00:19:00,
2013-01-10 19:24:00,54.1,48.4,30.24,NNE,22,0.0,0.0,81,0.00,,,0.00,0,WeatherTracker,2013-01-11 00:24:00,
2013-01-10 19:29:00,53.7,48.3,30.24,NNE,22,0.0,0.0,82,0.00,,,0.00,0,WeatherTracker,2013-01-11 00:29:00,
2013-01-10 19:34:00,53.3,48.3,30.24,NNE,22,0.0,0.0,83,0.00,,,0.00,0,WeatherTracker,2013-01-11 00:34:00,
2013-01-10 19:39:00,53.0,48.3,30.25,NNE,22,0.0,0.0,84,0.00,,,0.00,0,WeatherTracker,2013-01-11 00:39:00,
2013-01-10 19:44:00,52.9,48.2,30.25,NNE,22,0.0,0.0,84,0.00,,,0.00,0,WeatherTracker,2013-01-11 00:44:00,
2013-01-10 19:49:00,52.6,47.9,30.24,NNE,22,0.0,0.0,84,0.00,,,0.00,0,WeatherTracker,2013-01-11 00:49:00,
2013-01-10 19:54:00,52.4,47.7,30.24,NNE,22,0.0,0.0,84,0.00,,,0.00,0,WeatherTracker,2013-01-11 00:54:00,
2013-01-10 19:59:00,52.1,47.4,30.24,NNE,22,0.0,0.0,84,0.00,,,0.00,0,WeatherTracker,2013-01-11 00:59:00,
2013-01-10 20:04:00,51.9,47.5,30.23,NNE,22,0.0,0.0,85,0.00,,,0.00,0,WeatherTracker,2013-01-11 01:04:00,
2013-01-10 20:09:00,51.8,47.4,30.23,NNE,22,0.0,0.0,85,0.00,,,0.00,0,WeatherTracker,2013-01-11 01:09:00,
2013-01-10 20:14:00,51.7,47.6,30.23,NNE,22,0.0,0.0,86,0.00,,,0.00,0,WeatherTracker,2013-01-11 01:14:00,
2013-01-10 20:19:00,51.7,47.6,30.23,NNE,22,0.0,0.0,86,0.00,,,0.00,0,WeatherTracker,2013-01-11 01:19:00,
2013-01-10 20:24:00,51.7,47.6,30.23,NNE,22,0.0,0.0,86,0.00,,,0.00,0,WeatherTracker,2013-01-11 01:24:00,
2013-01-10 20:29:00,51.8,48.1,30.23,NNE,22,0.0,0.0,87,0.00,,,0.00,0,WeatherTracker,2013-01-11 01:29:00,
2013-01-10 20:34:00,52.1,48.0,30.23,NNE,22,0.0,0.0,86,0.00,,,0.00,0,WeatherTracker,2013-01-11 01:34:00,
2013-01-10 20:39:00,52.2,48.1,30.23,NNE,22,0.0,0.0,86,0.00,,,0.00,0,WeatherTracker,2013-01-11 01:39:00,
2013-01-10 20:44:00,52.3,48.2,30.23,NNE,22,0.0,0.0,86,0.00,,,0.00,0,WeatherTracker,2013-01-11 01:44:00,
2013-01-10 20:50:00,52.6,48.2,30.23,NNE,22,0.0,0.0,85,0.00,,,0.00,0,WeatherTracker,2013-01-11 01:50:00,
2013-01-10 20:55:00,52.7,48.3,30.23,NNE,22,0.0,0.0,85,0.00,,,0.00,0,WeatherTracker,2013-01-11 01:55:00,
2013-01-10 21:00:00,52.8,48.4,30.23,NNE,22,0.0,0.0,85,0.00,,,0.00,0,WeatherTracker,2013-01-11 02:00:00,
2013-01-10 21:05:00,53.1,48.4,30.23,NNE,22,0.0,0.0,84,0.00,,,0.00,0,WeatherTracker,2013-01-11 02:05:00,
2013-01-10 21:10:00,53.3,48.3,30.23,NNE,22,0.0,0.0,83,0.00,,,0.00,0,WeatherTracker,2013-01-11 02:10:00,
2013-01-10 21:15:00,53.5,48.1,30.22,NNE,22,1.0,0.0,82,0.00,,,0.00,0,WeatherTracker,2013-01-11 02:15:00,
2013-01-10 21:20:00,53.7,48.0,30.22,NNE,22,0.0,0.0,81,0.00,,,0.00,0,WeatherTracker,2013-01-11 02:20:00,
2013-01-10 21:25:00,54.0,48.0,30.22,NNE,33,0.0,0.0,80,0.00,,,0.00,0,WeatherTracker,2013-01-11 02:25:00,
2013-01-10 21:30:00,54.2,48.2,30.22,NE,34,0.0,0.0,80,0.00,,,0.00,0,WeatherTracker,2013-01-11 02:30:00,
2013-01-10 21:35:00,54.3,47.9,30.22,NE,37,0.0,0.0,79,0.00,,,0.00,0,WeatherTracker,2013-01-11 02:35:00,
2013-01-10 21:40:00,54.4,48.0,30.22,NE,37,0.0,0.0,79,0.00,,,0.00,0,WeatherTracker,2013-01-11 02:40:00,
2013-01-10 21:45:00,54.4,48.4,30.22,ESE,103,1.0,0.0,80,0.00,,,0.00,0,WeatherTracker,2013-01-11 02:45:00,
2013-01-10 21:50:00,54.3,48.3,30.22,ESE,104,0.0,0.0,80,0.00,,,0.00,0,WeatherTracker,2013-01-11 02:50:00,
2013-01-10 21:55:00,54.2,48.2,30.22,ESE,103,0.0,0.0,80,0.00,,,0.00,0,WeatherTracker,2013-01-11 02:55:00,
2013-01-10 22:00:00,54.0,49.0,30.21,NNE,25,0.0,0.0,83,0.00,,,0.00,0,WeatherTracker,2013-01-11 03:00:00,
2013-01-10 22:06:00,53.7,49.0,30.21,NNE,25,0.0,0.0,84,0.00,,,0.00,0,WeatherTracker,2013-01-11 03:06:00,
2013-01-10 22:11:00,53.3,48.9,30.21,NNE,25,0.0,0.0,85,0.00,,,0.00,0,WeatherTracker,2013-01-11 03:11:00,
2013-01-10 22:16:00,52.9,48.8,30.21,ESE,119,0.0,0.0,86,0.00,,,0.00,0,WeatherTracker,2013-01-11 03:16:00,
2013-01-10 22:21:00,52.6,48.8,30.21,SSE,153,0.0,0.0,87,0.00,,,0.00,0,WeatherTracker,2013-01-11 03:21:00,
2013-01-10 22:26:00,52.4,49.0,30.21,SSE,153,0.0,0.0,88,0.00,,,0.00,0,WeatherTracker,2013-01-11 03:26:00,
2013-01-10 22:31:00,52.2,49.1,30.20,SSE,153,0.0,0.0,89,0.00,,,0.00,0,WeatherTracker,2013-01-11 03:31:00,
2013-01-10 22:36:00,51.9,48.8,30.20,SSE,153,0.0,0.0,89,0.00,,,0.00,0,WeatherTracker,2013-01-11 03:36:00,
2013-01-10 22:41:00,51.7,48.9,30.20,SSE,153,0.0,0.0,90,0.00,,,0.00,0,WeatherTracker,2013-01-11 03:41:00,
2013-01-10 22:46:00,51.5,49.0,30.20,SSE,153,0.0,0.0,91,0.00,,,0.00,0,WeatherTracker,2013-01-11 03:46:00,
2013-01-10 22:51:00,51.4,48.9,30.19,SSE,153,0.0,0.0,91,0.00,,,0.00,0,WeatherTracker,2013-01-11 03:51:00,
2013-01-10 22:56:00,51.3,48.8,30.19,SSE,153,0.0,0.0,91,0.00,,,0.00,0,WeatherTracker,2013-01-11 03:56:00,
2013-01-10 23:01:00,51.2,48.7,30.19,SSE,153,0.0,0.0,91,0.00,,,0.00,0,WeatherTracker,2013-01-11 04:01:00,
2013-01-10 23:06:00,51.2,49.0,30.18,NNE,25,0.0,0.0,92,0.00,,,0.00,0,WeatherTracker,2013-01-11 04:06:00,
2013-01-10 23:11:00,51.0,48.8,30.19,NNE,26,0.0,0.0,92,0.01,,,0.01,0,WeatherTracker,2013-01-11 04:11:00,
2013-01-10 23:16:00,51.0,48.8,30.18,NNE,25,0.0,0.0,92,0.01,,,0.01,0,WeatherTracker,2013-01-11 04:16:00,
2013-01-10 23:21:00,50.9,48.7,30.18,NNE,26,0.0,0.0,92,0.01,,,0.01,0,WeatherTracker,2013-01-11 04:21:00,
2013-01-10 23:26:00,50.7,48.5,30.18,ENE,65,2.0,0.0,92,0.02,,,0.02,0,WeatherTracker,2013-01-11 04:26:00,
2013-01-10 23:31:00,50.6,48.4,30.18,ENE,65,0.0,0.0,92,0.02,,,0.02,0,WeatherTracker,2013-01-11 04:31:00,
2013-01-10 23:36:00,50.5,48.3,30.18,ENE,65,0.0,0.0,92,0.02,,,0.02,0,WeatherTracker,2013-01-11 04:36:00,
2013-01-10 23:41:00,50.4,48.5,30.18,North,5,2.0,0.0,93,0.03,,,0.03,0,WeatherTracker,2013-01-11 04:41:00,
2013-01-10 23:46:00,50.3,48.4,30.18,East,99,0.0,0.0,93,0.03,,,0.03,0,WeatherTracker,2013-01-11 04:46:00,
2013-01-10 23:51:00,50.3,48.4,30.17,East,99,0.0,0.0,93,0.04,,,0.04,0,WeatherTracker,2013-01-11 04:51:00,
2013-01-10 23:56:00,50.3,48.4,30.17,East,99,0.0,0.0,93,0.04,,,0.04,0,WeatherTracker,2013-01-11 04:56:00,